Regional Weather Roundup
Issued by NWS

Home | Current Version | Previous Version | Graphics & Text | Print | Product List | Glossary On
Versions: 1 2 3 4 5 6 7 8 9 10 11 12 13 14 15 16 17 18 19 20 21 22 23 24 25 26 27
000
ASUS45 KCYS 192310
RWRWY

WYOMING REGIONAL WEATHER ROUNDUP
NATIONAL WEATHER SERVICE CHEYENNE WY
400 PM MST MON FEB 19 2018

NOTE:  "FAIR" INDICATES FEW OR NO CLOUDS BELOW 12,000 FEET
WITH NO SIGNIFICANT WEATHER AND/OR OBSTRUCTIONS TO VISIBILITY.

WYZ001-200000-
YELLOWSTONE NATIONAL PARK

CITY           SKY/WX    TMP DP  RH WIND       PRES   REMARKS
LK YELLOWSTONE   N/A      5  -1  76 CALM      29.47R
W YELLOWSTONE  NOT AVBL

$$
WYZ002>013-054>058-071-098>099-200000-
NORTHERN WYOMING

CITY           SKY/WX    TMP DP  RH WIND       PRES   REMARKS
JACKSON        FAIR      21   8  57 W9        29.46R WCI  11
CODY           LGT SNOW  -3 -10  72 N12       29.78S WCI -21
GREYBULL       LGT SNOW   2  -3  80 NW14      29.87R WCI -16
WORLAND        LGT SNOW   2  -4  76 N7        29.87R VSB 1   WCI -11
SHERIDAN       CLOUDY     1  -4  79 NW12      29.89R HAZE    WCI -16
BUFFALO        LGT SNOW  -1  -7  75 N12       29.79R WCI -18
GILLETTE       CLOUDY     0  -6  76 N12       29.82R HAZE    WCI -17
HULETT         LGT SNOW   0  -8  71 MISG      29.83R
NEWCASTLE      LGT SNOW   3  -4  72 W5        29.81R WCI  -6

$$
WYZ014>020-022>026-101>103-200000-
CENTRAL WYOMING

CITY           SKY/WX    TMP DP  RH WIND       PRES   REMARKS
BIG PINEY      CLOUDY     8   3  80 S15       29.45R WCI  -9
PINEDALE       LGT SNOW   9   3  78 SE10      29.46R WCI  -6
DUBOIS         NOT AVBL
LANDER         LGT SNOW   2  -4  76 NE5       29.67S WCI  -8
RIVERTON       LGT SNOW   1  -7  68 N9        29.68S WCI -14
CASPER         SNOW      -2  -6  83 NE14      29.70R VSB 1/2 WCI -21
DOUGLAS        LGT SNOW   0  -5  79 NE7       29.75R WCI -13

$$
WYZ021-027>030-104>119-200000-
SOUTHERN WYOMING

CITY           SKY/WX    TMP DP  RH WIND       PRES   REMARKS
EVANSTON       LGT SNOW  12   9  87 S6        29.48R FOG     WCI   3
ROCK SPRINGS   LGT SNOW   1  -7  68 NE21      29.53R WCI -21
DIXON          LGT SNOW   6   0  74 W9G18     29.51R WCI  -7
RAWLINS        CLOUDY    -2  -9  72 N18       29.50R HAZE    WCI -24
SARATOGA       CLOUDY     1  -4  78 NW14      29.46R HAZE    WCI -17
LARAMIE        BLWGSNOW   6   4  91 SE24      29.38F VSB 1/4 WCI -16
CHEYENNE       FOG        4   1  88 E9        29.53R VSB 1   WCI -10
TORRINGTON     LGT SNOW   4  -2  76 E9        29.75R WCI -10
PINE BLUFFS    CLOUDY     5   1  85 NE8       29.63S WCI  -8

$$




USA.gov is the U.S. government's official web portal to all federal, state and local government web resources and services.